User: anonymous   Login
Location: Skalnate Pleso
(49.1889°N, 20.2450°E)
Time: 19:44:27
(UTC+01:00)
Language:

Iridium 18 - Orbit

View from above orbital plane
View from above orbital plane
View from above satellite
View from above satellite

Ground track
Ground track

The orbit data is extracted from the following two-line orbital elements,

1 24872U 97034D   15062.31937748  .00000170  00000-0  53726-4 0  9997
2 24872 086.3998 011.8326 0002238 088.1736 271.9716 14.34214844923964
Epoch (UTC): 03 March 2015 07:39:54
Eccentricity: 0.0002238
inclination: 86.3998°
perigee height: 776 km
apogee height: 779 km
right ascension of ascending node: 11.8326°
argument of perigee: 88.1736°
revolutions per day: 14.34214844
mean anomaly at epoch: 271.9716°
orbit number at epoch: 92396

The dashed part of the orbit path shows where the satellite is in the earth's shadow,  

DLR